Wind_Speed
5 2 1 2 2 3 3 6 5 6 8 3 6 6 6 4 5 4 2 29 19 34 38 34 28 25 21 20 19 18 17 15 14 13 13 12 10 8 7 6 5 5 5 4 3 3 2 2 2
4 4 2 2 3 1 4 6 7 2 3 9 11 7 7 3 1 6 12 24 24 34 37 35 31 27 25 23 21 20 18 16 15 13 12 12 11 10 8 6 5 6 6 5 4 3 3 4 4
4 3 3 3 3 5 4 5 5 5 4 5 4 3 5 4 3 7 7 26 26 34 36 36 34 31 28 26 25 23 21 19 17 15 13 12 12 10 9 8 8 8 7 6 6 6 6 6 7
4 3 3 1 8 7 5 13 2 4 5 6 2 2 4 5 7 13 26 26 26 32 35 36 36 34 31 30 28 27 25 22 19 17 15 14 13 12 10 10 9 8 8 9 9 9 9 9 9
2 2 0 3 6 6 11 9 5 6 3 3 3 5 2 3 22 27 27 27 29 32 36 36 36 35 33 32 30 29 28 26 23 20 18 17 15 13 12 11 10 10 10 11 11 11 13 13 12
2 1 1 5 7 7 5 6 11 5 2 9 2 3 4 13 29 33 29 26 28 29 35 36 37 37 37 35 33 32 30 28 26 24 21 19 16 14 13 11 11 10 10 11 12 13 13 13 13
5 3 4 4 5 6 0 7 5 4 4 4 4 6 2 3 25 32 29 28 29 28 32 34 39 40 38 38 36 35 34 32 30 27 24 22 18 16 14 11 10 10 11 12 13 14 14 13 14
4 4 3 5 5 7 4 10 5 8 8 1 6 6 4 6 17 24 26 29 29 33 33 34 37 43 43 41 40 38 37 35 33 31 28 24 21 18 16 12 11 11 11 10 11 12 13 13 13
7 0 5 6 6 7 9 7 26 2 9 2 3 6 11 11 16 13 17 17 27 29 33 36 38 43 47 44 43 39 37 36 34 32 30 27 25 22 18 15 12 13 12 12 11 11 11 11 13
5 7 9 9 5 5 5 6 15 19 10 7 7 4 13 6 20 16 10 13 27 31 37 37 39 42 46 44 42 42 40 39 38 36 34 31 28 24 19 15 13 15 14 14 11 10 9 9 10
6 14 13 14 11 10 11 12 6 17 16 8 4 8 7 8 12 4 8 9 12 17 29 36 40 44 45 44 43 43 44 43 41 39 36 33 29 24 20 17 14 14 15 16 13 12 13 10 10
14 15 16 16 17 14 16 14 16 15 18 12 10 8 6 7 8 9 13 18 18 20 19 26 39 45 47 44 46 46 46 46 44 42 38 34 29 25 20 19 15 17 17 18 16 14 14 14 12
20 20 15 13 16 20 19 21 20 23 18 16 11 8 8 8 9 15 24 26 24 24 20 28 32 44 49 47 45 44 46 47 44 42 38 35 30 26 21 19 17 17 17 17 15 16 16 16 16
4 6 13 17 19 19 19 22 20 22 19 21 14 12 11 10 11 14 20 24 28 30 28 25 32 40 45 45 48 48 45 46 44 41 38 36 31 24 22 19 19 18 17 16 13 13 16 15 15
11 10 14 20 12 17 16 26 28 21 21 19 15 12 11 11 12 12 25 25 31 35 29 24 31 38 42 44 48 44 42 40 40 38 36 36 29 26 24 22 19 18 17 16 14 13 13 14 13
3 4 17 21 18 10 8 35 20 11 15 20 17 18 18 14 15 25 33 33 27 25 27 30 31 33 37 40 44 43 41 39 37 34 33 29 28 28 25 21 18 14 15 15 15 15 16 18 19
7 17 20 26 6 4 11 39 15 14 17 13 11 14 15 19 18 21 36 37 30 21 28 27 26 29 36 39 40 39 38 35 34 33 32 27 28 27 27 22 17 15 16 16 16 17 18 20 21
9 19 19 16 6 13 18 36 21 18 19 22 22 23 20 20 18 23 35 42 29 26 29 26 25 31 34 35 34 33 32 32 31 30 28 28 27 28 25 19 13 15 17 17 17 18 18 20 20
10 11 10 5 10 11 22 24 21 17 16 12 13 17 19 19 17 21 24 22 18 17 19 20 24 31 32 32 31 30 31 29 29 26 27 24 28 28 24 17 15 18 17 17 17 15 15 17 19
14 16 19 6 9 15 18 28 24 23 22 19 21 20 17 15 9 10 15 20 19 22 24 21 26 31 35 31 30 26 32 31 30 25 21 22 25 25 20 16 15 14 13 13 13 11 13 13 11
16 19 12 8 12 22 9 19 8 15 11 10 10 15 10 12 11 10 10 19 16 18 21 23 27 29 31 32 29 24 27 25 19 21 20 24 24 22 18 14 11 10 11 11 10 10 12 10 9
19 12 13 16 13 13 8 19 22 14 22 16 12 11 12 14 9 10 12 7 16 19 20 22 23 27 27 30 33 33 22 20 19 21 20 24 23 19 13 11 9 9 9 9 8 8 11 10 9
19 10 16 13 8 15 16 6 25 10 16 17 15 14 11 11 11 11 10 9 19 25 25 24 25 26 30 30 30 30 27 21 20 18 19 21 18 13 12 10 7 7 8 8 8 9 10 12 12
6 9 15 12 2 8 14 11 9 14 15 8 9 9 11 11 10 8 4 15 18 27 28 29 30 30 29 26 27 27 25 20 19 18 21 19 16 12 9 8 8 7 6 8 8 7 9 10 12
4 1 3 2 5 16 12 10 21 9 8 15 16 15 14 8 4 7 11 12 14 20 26 29 31 29 26 25 24 23 21 21 24 24 23 19 15 13 10 9 9 10 8 6 6 7 8 8 11
7 9 5 7 4 4 12 9 7 16 20 26 21 18 4 5 6 7 7 9 15 20 23 26 29 28 28 26 24 22 22 22 21 19 18 17 13 8 7 8 7 7 7 7 8 8 8 7 9
4 10 5 6 15 1 5 8 9 19 24 21 19 8 8 8 9 11 10 10 16 17 24 28 29 30 28 28 25 21 19 19 18 16 15 12 8 7 10 8 6 6 7 8 10 10 10 8 6
7 5 5 3 7 6 5 6 8 7 11 12 12 10 8 8 11 11 11 11 16 21 27 29 29 30 28 25 21 21 19 17 14 11 11 8 9 11 9 7 5 7 6 6 7 8 10 10 9
3 1 3 3 4 8 3 6 11 11 13 18 8 14 16 14 13 12 11 13 18 22 25 27 28 27 26 23 21 20 17 13 12 10 11 12 12 10 9 5 4 3 2 3 4 6 7 8 6
4 6 5 3 6 5 2 12 17 8 12 12 14 16 13 13 12 13 12 12 17 18 24 26 25 25 25 22 21 20 19 17 15 12 12 11 11 11 7 6 6 5 3 2 3 8 7 7 7
Wind_Direction
268 281 121 97 71 78 257 261 282 293 342 338 290 78 140 116 157 204 256 179 185 174 176 174 174 172 166 164 158 155 155 153 148 148 145 142 141 143 142 140 147 156 159 164 168 178 217 246 248
212 146 75 54 111 167 263 234 250 243 268 30 350 101 16 50 54 125 124 176 182 174 174 175 177 177 174 172 168 165 163 162 158 156 153 151 153 156 155 154 164 172 177 181 197 212 229 250 254
178 124 95 142 192 200 209 238 203 349 346 48 22 343 132 140 80 133 189 175 174 177 178 179 181 182 180 179 175 172 172 171 169 167 166 166 167 169 169 171 180 187 192 201 216 224 236 246 252
147 15 1 143 238 262 261 269 320 276 282 83 356 323 81 266 141 154 160 170 179 183 184 184 185 185 184 184 183 179 178 178 179 179 178 179 178 179 181 186 191 193 199 212 224 233 242 248 253
119 60 145 245 253 251 258 300 280 246 246 189 161 177 131 154 153 161 170 177 182 184 188 190 190 189 189 191 188 187 184 185 186 186 187 188 187 188 188 195 200 201 207 218 228 237 246 245 250
37 91 152 225 246 270 251 272 250 217 220 279 234 90 182 173 155 172 176 184 190 191 191 194 196 196 194 194 193 192 193 191 191 191 193 195 196 196 198 201 203 206 214 225 235 242 248 248 250
137 108 234 249 261 280 12 302 329 237 200 257 145 136 281 257 178 177 185 192 197 199 193 196 201 202 201 199 199 197 198 197 196 196 198 199 201 205 207 208 208 212 222 231 240 250 256 255 254
160 125 257 235 230 262 43 335 303 33 302 164 130 157 196 257 214 191 198 198 198 197 200 202 204 205 205 203 204 203 202 203 201 199 201 203 205 209 215 219 215 221 227 231 241 250 259 261 257
150 171 232 237 213 248 83 59 287 342 337 193 162 145 182 225 221 225 223 186 213 207 210 208 206 208 209 207 207 207 208 208 208 204 203 206 208 211 218 226 229 234 235 236 240 256 267 260 260
174 189 229 230 266 297 345 132 271 303 308 307 307 196 337 319 179 190 202 224 179 203 213 214 210 210 211 209 210 209 209 213 213 211 205 207 211 214 220 230 233 241 244 244 246 255 263 259 264
218 228 212 251 271 286 283 280 223 284 282 257 249 295 297 292 305 289 230 235 245 209 209 216 217 215 213 209 212 213 213 214 217 215 211 209 211 215 218 228 232 236 243 246 247 249 254 257 261
259 246 238 249 262 272 263 276 275 255 266 252 247 231 249 231 252 258 236 235 241 249 217 213 217 215 216 210 213 214 214 215 218 217 214 213 211 215 219 222 229 239 245 246 242 247 252 253 255
253 255 252 253 251 254 265 265 263 274 275 265 259 258 255 252 251 252 246 252 248 244 237 214 211 215 218 210 212 213 216 217 219 220 215 216 214 214 217 221 231 240 245 239 237 246 251 254 249
296 276 262 252 253 258 260 266 267 270 275 282 282 281 280 258 246 258 259 253 249 245 247 218 212 213 213 210 214 216 216 218 220 222 220 219 218 213 216 216 227 241 244 228 231 238 249 241 242
264 285 282 260 251 253 261 261 252 258 269 271 273 273 270 260 264 243 260 259 263 252 254 215 209 210 212 215 214 213 216 216 217 222 221 219 215 212 211 217 227 238 227 225 230 242 231 226 228
262 248 247 248 244 247 267 262 257 259 252 256 261 271 266 260 257 269 264 266 263 263 231 215 212 208 213 214 214 211 212 215 216 215 214 211 207 203 205 215 220 211 222 238 233 244 240 242 244
207 237 234 250 221 228 212 263 255 236 252 263 263 265 268 276 275 257 259 260 258 239 216 221 215 213 217 213 211 206 208 211 213 212 211 205 205 202 208 210 217 229 236 245 251 245 250 253 249
211 219 233 254 210 216 235 261 257 264 267 268 270 268 270 267 264 253 256 257 234 225 227 229 218 215 212 209 204 202 206 208 210 209 202 207 202 199 209 212 221 228 238 245 249 253 252 250 251
269 262 253 244 199 218 241 262 258 250 252 258 265 269 261 261 252 258 259 257 240 217 212 224 208 208 202 191 178 182 183 190 198 189 186 189 191 203 201 211 222 229 232 243 265 261 257 254 247
244 265 264 301 276 216 243 251 263 265 262 256 259 260 255 248 257 255 243 227 219 220 222 214 208 203 200 186 181 170 166 167 170 176 183 190 202 195 204 213 217 225 238 257 271 262 261 262 235
242 234 261 265 296 292 300 281 247 261 257 255 256 253 250 242 249 255 243 225 219 209 209 202 203 198 189 182 171 163 156 152 155 163 168 188 194 194 196 208 227 235 248 255 262 250 235 227 211
249 251 241 248 261 266 217 280 259 262 267 262 245 248 251 266 249 246 240 214 196 189 188 185 182 179 175 168 162 154 154 158 167 172 177 176 185 188 202 230 230 248 251 247 244 239 234 223 211
250 255 232 252 238 248 248 274 267 208 250 252 253 245 251 253 255 256 245 195 184 167 161 160 162 160 162 158 163 164 167 167 178 186 182 176 175 198 214 216 225 242 238 232 236 232 229 226 225
290 231 243 260 224 254 228 220 275 237 240 245 241 270 262 261 264 250 172 140 138 142 140 148 150 153 156 157 162 168 171 174 165 169 164 166 177 195 202 217 223 226 232 234 239 241 239 235 238
240 143 233 230 197 234 183 218 240 270 249 242 249 250 258 261 218 147 132 132 128 127 133 141 147 148 146 149 154 155 154 166 164 160 159 163 179 205 208 211 218 228 234 235 236 242 237 236 235
187 171 183 193 200 277 240 241 240 236 257 256 252 253 163 146 119 116 115 119 124 126 129 135 137 142 146 140 135 131 132 142 146 156 167 178 189 204 192 194 203 222 234 233 225 235 233 231 244
318 216 194 276 277 301 233 268 275 258 266 262 252 168 176 153 135 128 116 117 122 122 133 138 134 142 139 131 131 129 133 138 140 147 161 172 189 184 170 184 199 210 230 235 224 229 234 234 236
191 258 163 215 217 240 255 252 236 252 284 277 251 174 153 134 130 128 126 126 120 132 140 143 138 137 136 136 131 127 127 130 136 145 154 167 167 162 178 188 206 223 227 232 244 233 235 240 233
351 226 198 173 195 219 299 255 244 250 267 279 198 165 153 150 146 136 132 127 129 136 141 143 140 139 140 139 137 138 136 139 144 148 159 165 165 179 186 182 209 221 234 219 218 231 236 208 209
244 253 172 205 250 249 210 265 260 271 282 269 163 155 144 147 137 132 132 132 137 136 144 147 146 147 147 149 152 158 155 149 153 160 163 166 174 191 201 225 235 231 230 245 254 241 212 150 163
Height
782 784 784 784 806 810 815 796 763 766 755 740 730 736 744 745 758 785 738 741 743 744 750 757 762 765 767 770 771 774 777 779 780 782 783 784 785 787 788 789 791 792 793 795 794 795 796 797 796
781 783 784 787 812 820 810 778 772 754 741 728 728 735 743 753 735 737 740 743 744 745 749 754 758 762 764 767 769 771 774 778 779 781 782 783 784 786 787 788 790 791 792 793 794 794 795 796 796
783 782 789 798 809 813 801 768 758 750 736 733 737 726 741 747 736 736 738 741 745 747 747 750 754 758 761 765 766 768 771 775 778 779 781 782 783 784 785 785 787 789 790 791 793 794 794 795 794
783 785 788 803 804 782 775 757 756 754 738 727 729 745 733 733 735 735 739 741 743 745 746 748 751 755 757 760 763 763 766 770 774 776 778 779 780 781 782 784 785 786 788 790 791 792 792 793 793
782 788 805 806 794 771 757 755 747 752 741 737 729 744 743 732 732 734 735 737 739 742 743 746 750 752 754 758 760 762 763 765 769 772 775 777 778 779 780 782 783 784 785 788 789 789 790 790 790
789 791 810 808 789 761 755 747 747 748 743 735 741 744 743 735 731 732 733 733 736 737 739 742 747 748 750 753 756 759 762 762 765 768 771 774 776 777 779 780 781 781 783 785 786 787 787 787 787
789 802 806 795 783 771 751 740 747 745 744 738 727 752 740 735 732 729 729 731 733 736 738 740 743 746 748 750 752 754 757 758 760 763 767 769 773 777 778 779 779 780 782 783 783 784 784 783 784
783 793 798 790 785 774 746 742 739 741 744 724 725 751 752 734 732 733 731 731 730 732 735 736 738 742 744 746 748 751 752 755 754 757 762 766 769 773 777 778 778 779 780 780 781 781 781 780 781
769 800 805 788 775 761 746 758 733 733 736 733 728 730 728 726 728 732 731 733 734 733 731 733 734 737 739 741 744 749 752 754 755 755 757 762 765 769 773 776 776 778 778 779 779 779 778 778 778
776 791 788 764 758 758 748 753 752 747 748 738 729 721 721 719 722 726 727 727 725 727 727 729 730 732 736 739 742 744 748 751 752 753 753 757 761 765 769 773 774 776 777 777 777 777 777 776 776
764 766 761 755 753 751 751 749 744 749 752 739 735 726 719 719 716 720 719 717 717 717 720 721 723 726 729 734 737 740 743 745 747 749 751 753 758 763 766 769 771 774 775 776 775 775 775 774 775
768 751 752 752 747 748 749 742 743 743 740 729 725 721 718 718 718 718 717 715 712 711 711 713 716 720 722 726 729 733 737 739 742 743 748 751 754 759 764 766 768 770 772 773 772 773 773 773 773
757 749 750 746 745 742 740 742 740 731 724 721 717 716 716 714 712 711 711 711 708 706 705 706 708 712 715 719 724 726 729 733 736 739 744 748 751 755 760 764 765 768 770 770 770 770 771 771 771
747 750 748 744 742 740 743 734 731 723 716 712 713 713 709 708 707 705 705 703 703 701 700 701 703 705 709 712 715 716 721 726 731 735 740 744 747 752 756 760 762 764 767 768 767 768 768 768 768
748 759 750 740 741 739 736 733 727 718 713 714 712 708 705 704 701 700 698 696 695 694 694 694 695 698 701 704 707 712 715 721 726 731 736 739 743 747 752 755 759 761 764 765 765 765 766 766 766
754 755 759 731 737 736 743 721 715 711 713 711 706 702 700 697 692 691 690 689 687 687 687 688 689 691 696 699 701 705 709 715 722 727 732 736 738 743 749 753 756 758 760 761 762 762 762 762 762
760 757 752 736 733 737 739 705 715 709 709 711 707 701 695 690 685 684 681 679 680 679 682 684 686 688 689 693 696 700 704 711 718 724 729 733 737 742 746 750 753 754 756 758 759 758 758 757 758
759 751 736 740 736 733 736 703 711 707 706 702 698 692 689 685 681 675 672 670 672 675 676 679 680 682 685 689 693 699 705 710 715 720 726 730 736 741 744 748 749 750 753 755 755 754 753 752 753
738 741 739 732 727 733 723 713 707 701 700 702 696 689 681 677 668 666 665 667 669 668 670 675 675 678 681 686 690 697 700 707 713 718 724 730 735 738 742 745 746 748 749 750 750 750 749 749 750
744 746 741 737 725 724 723 712 699 693 691 690 685 681 677 673 667 663 661 661 660 660 662 665 668 670 673 679 687 693 699 707 712 718 723 728 732 736 739 741 743 745 746 747 747 746 746 747 748
737 743 744 746 732 717 728 716 713 689 685 683 679 671 670 666 662 660 656 653 653 656 658 660 663 667 672 675 686 695 702 709 714 718 720 725 730 734 737 739 741 742 743 743 743 743 743 744 745
741 732 733 738 744 748 725 736 705 689 680 677 674 671 663 654 654 653 649 649 649 651 657 659 662 667 676 678 683 691 698 705 710 715 719 725 730 732 734 736 738 739 740 740 740 740 741 742 743
730 724 728 730 737 741 733 748 666 685 682 674 666 659 656 651 648 646 644 644 646 649 654 659 665 671 678 680 685 693 700 706 710 714 720 725 728 731 733 735 736 737 737 738 737 738 739 740 741
718 722 725 729 740 750 722 732 689 685 674 667 656 651 647 645 643 640 639 641 648 650 654 662 667 674 679 682 689 695 700 705 709 715 719 723 727 730 731 733 734 735 735 735 735 736 737 738 738
722 734 754 759 755 725 707 720 682 668 658 655 651 647 640 641 641 643 642 645 650 652 657 664 670 675 680 686 692 697 701 705 709 715 719 723 726 728 730 731 732 733 733 733 733 733 735 735 735
724 734 748 750 749 726 704 708 687 652 645 637 638 637 641 645 644 647 649 650 653 656 662 668 672 677 683 689 695 699 702 707 712 716 719 722 725 726 728 730 731 731 732 731 731 732 733 733 734
720 725 716 730 714 729 706 681 662 644 639 634 635 642 645 647 647 649 651 654 657 661 665 670 675 680 686 692 697 701 705 709 713 717 720 722 724 726 727 729 729 730 729 729 729 729 730 731 731
714 709 726 730 737 739 708 692 680 650 642 635 635 640 645 647 648 650 653 657 660 666 669 674 679 683 688 694 699 702 706 710 714 717 719 721 723 725 727 727 728 728 728 728 727 727 728 729 729
718 714 712 716 718 716 720 697 649 650 637 632 633 632 638 643 647 651 655 660 664 668 672 678 682 686 691 696 700 704 707 711 714 716 719 721 724 725 726 726 727 727 727 726 725 724 726 728 727
712 717 722 729 719 702 701 679 633 634 630 621 624 628 635 642 647 652 658 662 668 672 676 681 685 689 693 698 701 704 707 710 714 717 719 722 723 724 725 726 726 726 726 725 724 724 725 726 726